Voltar ao catálogo

ONEWEB-0330

AtivoComunicaçõesPO
NORAD 49108·PAYLOAD·🇬🇧 United Kingdom

Lançado Aug 21, 2021 de Baikonur Cosmodrome

Loading…

Próximas Passagens (próximas 24 horas)

TLE

AtualizadoSource: CelesTrak SupGP

Época: Sep 14, 2026, 17:42 UTC

1 49108C 21075AK  26257.73767778  .00002329  00000+0  60060-2 0  2577
2 49108  87.9206 348.0986 0001753 105.5206   6.4242 13.17645844    11

Acompanhe ONEWEB-0330 em tempo real com AllMySat

Download on the App Store